This is the latest recevied weather packets stored in our database for station/object IW4DZV-13. If no packets are shown the sender has not sent any weather packets the latest 10 day(s).
| Time | Temp. | Humidity | Pressure | Rain* | Wind** | Luminosity | Snow |
|---|---|---|---|---|---|---|---|
| 1777870853 | 12.78° C | 68% | 1016.1 hPa | 0 mm | - | 58 W/m² | - |
| 1777869944 | 12.78° C | 68% | 1016 hPa | 0 mm | - | 42 W/m² | - |
| 1777869043 | 12.22° C | 68% | 1015.7 hPa | 0 mm | - | 35 W/m² | - |
| 1777868139 | 12.78° C | 67% | 1015.6 hPa | 0 mm | - | 26 W/m² | - |
| 1777867238 | 12.78° C | 66% | 1015.6 hPa | 0 mm | - | 0 W/m² | - |
| 1777866338 | 12.78° C | 66% | 1015.5 hPa | 0 mm | - | 0 W/m² | - |
| 1777865439 | 12.78° C | 67% | 1015.4 hPa | 0 mm | - | 0 W/m² | - |
| 1777864536 | 12.78° C | 66% | 1015.4 hPa | 0 mm | - | 0 W/m² | - |
| 1777863634 | 12.78° C | 67% | 1015.5 hPa | 0 mm | - | 0 W/m² | - |
| 1777862734 | 13.33° C | 67% | 1015.5 hPa | 0 mm | - | 0 W/m² | - |
| 1777861834 | 13.33° C | 67% | 1015.6 hPa | 0 mm | - | 0 W/m² | - |
| 1777860928 | 13.89° C | 66% | 1015.5 hPa | 0 mm | - | 0 W/m² | - |
| 1777860027 | 13.89° C | 66% | 1015.6 hPa | 0 mm | - | 0 W/m² | - |
| 1777859136 | 14.44° C | 65% | 1015.7 hPa | 0 mm | - | 0 W/m² | - |
| 1777858234 | 14.44° C | 64% | 1015.7 hPa | 0 mm | - | 0 W/m² | - |
| 1777857322 | 15° C | 64% | 1015.7 hPa | 0 mm | - | 0 W/m² | - |
| 1777856420 | 15° C | 63% | 1015.6 hPa | 0 mm | - | 0 W/m² | - |
| 1777855518 | 15.56° C | 63% | 1015.7 hPa | 0 mm | - | 0 W/m² | - |
| 1777854617 | 15.56° C | 62% | 1015.6 hPa | 0 mm | - | 0 W/m² | - |
| 1777853716 | 15.56° C | 62% | 1015.8 hPa | 0 mm | - | 0 W/m² | - |
| 1777852818 | 15.56° C | 62% | 1015.7 hPa | 0 mm | - | 0 W/m² | - |
| 1777851915 | 15.56° C | 62% | 1015.8 hPa | 0 mm | - | 0 W/m² | - |
| 1777851020 | 15.56° C | 62% | 1015.8 hPa | 0 mm | - | 0 W/m² | - |
| 1777850116 | 15.56° C | 62% | 1015.9 hPa | 0 mm | - | 0 W/m² | - |
| 1777849211 | 16.11° C | 63% | 1016 hPa | 0 mm | - | 0 W/m² | - |
* Rain since midnight (hover to see other rain measurements)
** Current wind speed in m/s (hover to see current wind gust speed)